Time,TemperatureF,DewpointF,PressureIn,WindDirection,WindDirectionDegrees,WindSpeedMPH,WindSpeedGustMPH,Humidity,HourlyPrecipIn,Conditions,Clouds,dailyrainin,SoftwareType,DateUTC
2013-06-01 00:03:00,69.0,65.0,30.03,WSW,244,0.0,0.0,87,0.00,,,0.00,,2013-06-01 04:03:00,
2013-06-01 00:12:00,69.0,65.0,30.03,WSW,244,0.0,0.0,87,0.00,,,0.00,,2013-06-01 04:12:00,
2013-06-01 00:23:00,69.0,65.0,30.03,WSW,244,0.0,0.0,87,0.00,,,0.00,,2013-06-01 04:23:00,
2013-06-01 00:33:00,69.0,65.0,30.03,SW,215,0.0,0.0,86,0.00,,,0.00,,2013-06-01 04:33:00,
2013-06-01 00:42:00,69.0,65.0,30.03,SSW,210,0.0,0.0,86,0.00,,,0.00,,2013-06-01 04:42:00,
2013-06-01 00:53:00,69.0,65.0,30.03,SSW,210,0.0,0.0,86,0.00,,,0.00,,2013-06-01 04:53:00,
2013-06-01 01:02:00,68.0,64.0,30.03,SSW,210,0.0,0.0,87,0.00,,,0.00,,2013-06-01 05:02:00,
2013-06-01 01:12:00,68.0,64.0,30.03,SSW,210,0.0,0.0,87,0.00,,,0.00,,2013-06-01 05:12:00,
2013-06-01 01:22:00,68.0,64.0,30.03,SSW,210,0.0,0.0,88,0.00,,,0.00,,2013-06-01 05:22:00,
2013-06-01 01:32:00,67.0,63.0,30.02,SSW,210,0.0,0.0,88,0.00,,,0.00,,2013-06-01 05:32:00,
2013-06-01 01:42:00,67.0,64.0,30.02,SSW,210,0.0,0.0,89,0.00,,,0.00,,2013-06-01 05:42:00,
2013-06-01 01:52:00,67.0,64.0,30.02,SSW,210,0.0,0.0,89,0.00,,,0.00,,2013-06-01 05:52:00,
2013-06-01 02:01:00,66.0,63.0,30.02,SSW,210,0.0,0.0,90,0.00,,,0.00,,2013-06-01 06:01:00,
2013-06-01 02:12:00,66.0,63.0,30.02,SSW,210,0.0,0.0,90,0.00,,,0.00,,2013-06-01 06:12:00,
2013-06-01 02:22:00,66.0,63.0,30.02,SSW,210,0.0,0.0,91,0.00,,,0.00,,2013-06-01 06:22:00,
2013-06-01 02:32:00,65.0,63.0,30.02,SSW,210,0.0,0.0,92,0.00,,,0.00,,2013-06-01 06:32:00,
2013-06-01 02:42:00,64.0,62.0,29.99,SSW,210,0.0,0.0,92,0.00,,,0.00,,2013-06-01 06:42:00,
2013-06-01 02:52:00,64.0,62.0,29.99,SSW,210,0.0,0.0,92,0.00,,,0.00,,2013-06-01 06:52:00,
2013-06-01 03:01:00,65.0,62.0,30.01,SSW,210,0.0,0.0,91,0.00,,,0.00,,2013-06-01 07:01:00,
2013-06-01 03:11:00,65.0,62.0,30.01,SSW,210,0.0,0.0,91,0.00,,,0.00,,2013-06-01 07:11:00,
2013-06-01 03:22:00,65.0,63.0,30.01,SSW,210,0.0,0.0,92,0.00,,,0.00,,2013-06-01 07:22:00,
2013-06-01 03:32:00,65.0,63.0,30.01,SSW,210,0.0,0.0,92,0.00,,,0.00,,2013-06-01 07:32:00,
2013-06-01 03:42:00,65.0,62.0,30.01,SSW,210,0.0,0.0,91,0.00,,,0.00,,2013-06-01 07:42:00,
2013-06-01 03:52:00,65.0,62.0,30.01,SSW,210,0.0,0.0,91,0.00,,,0.00,,2013-06-01 07:52:00,
2013-06-01 04:02:00,66.0,63.0,30.01,SSW,205,0.0,0.0,90,0.00,,,0.00,,2013-06-01 08:02:00,
2013-06-01 04:11:00,66.0,63.0,30.01,SSW,205,0.0,0.0,90,0.00,,,0.00,,2013-06-01 08:11:00,
2013-06-01 04:22:00,66.0,63.0,30.00,SSW,209,0.0,0.0,90,0.00,,,0.00,,2013-06-01 08:22:00,
2013-06-01 04:32:00,66.0,63.0,30.01,SSW,196,0.0,0.0,90,0.00,,,0.00,,2013-06-01 08:32:00,
2013-06-01 04:42:00,65.0,63.0,30.01,SSW,196,0.0,0.0,92,0.00,,,0.00,,2013-06-01 08:42:00,
2013-06-01 04:52:00,65.0,63.0,30.01,SSW,196,0.0,0.0,92,0.00,,,0.00,,2013-06-01 08:52:00,
2013-06-01 05:02:00,64.0,62.0,30.01,SSW,196,0.0,0.0,94,0.00,,,0.00,,2013-06-01 09:02:00,
2013-06-01 05:12:00,64.0,62.0,30.01,SSW,196,0.0,0.0,94,0.00,,,0.00,,2013-06-01 09:12:00,
2013-06-01 05:22:00,63.0,62.0,30.01,SSW,196,0.0,0.0,95,0.00,,,0.00,,2013-06-01 09:22:00,
2013-06-01 05:33:00,62.0,61.0,30.02,SSW,196,0.0,0.0,95,0.00,,,0.00,,2013-06-01 09:33:00,
2013-06-01 05:43:00,62.0,61.0,30.02,SSW,196,0.0,0.0,95,0.00,,,0.00,,2013-06-01 09:43:00,
2013-06-01 05:53:00,62.0,61.0,30.02,SSW,196,0.0,0.0,95,0.00,,,0.00,,2013-06-01 09:53:00,
2013-06-01 06:02:00,62.0,61.0,30.02,SSW,196,0.0,0.0,95,0.00,,,0.00,,2013-06-01 10:02:00,
2013-06-01 06:13:00,62.0,61.0,30.02,SSW,196,0.0,0.0,95,0.00,,,0.00,,2013-06-01 10:13:00,
2013-06-01 06:22:00,62.0,61.0,30.02,SSW,196,0.0,0.0,96,0.00,,,0.00,,2013-06-01 10:22:00,
2013-06-01 06:33:00,63.0,62.0,30.02,SSW,196,0.0,0.0,96,0.00,,,0.00,,2013-06-01 10:33:00,
2013-06-01 06:42:00,63.0,62.0,30.02,SSW,196,0.0,0.0,96,0.00,,,0.00,,2013-06-01 10:42:00,
2013-06-01 06:53:00,65.0,63.0,30.01,SSW,196,0.0,0.0,94,0.00,,,0.00,,2013-06-01 10:53:00,
2013-06-01 07:02:00,66.0,64.0,30.00,SSW,196,0.0,0.0,92,0.00,,,0.00,,2013-06-01 11:02:00,
2013-06-01 07:11:00,66.0,64.0,30.00,SSW,196,0.0,0.0,92,0.00,,,0.00,,2013-06-01 11:11:00,
2013-06-01 07:22:00,68.0,65.0,30.02,SSW,196,0.0,0.0,91,0.00,,,0.00,,2013-06-01 11:22:00,
2013-06-01 07:33:00,69.0,66.0,30.02,South,191,0.0,0.0,89,0.00,,,0.00,,2013-06-01 11:33:00,
2013-06-01 07:42:00,69.0,66.0,30.02,South,191,0.0,0.0,89,0.00,,,0.00,,2013-06-01 11:42:00,
2013-06-01 07:52:00,71.0,67.0,30.02,ESE,123,0.0,0.0,86,0.00,,,0.00,,2013-06-01 11:52:00,
2013-06-01 08:01:00,72.0,67.0,30.02,ENE,66,0.0,0.0,83,0.00,,,0.00,,2013-06-01 12:01:00,
2013-06-01 08:12:00,72.0,67.0,30.02,ENE,66,0.0,0.0,83,0.00,,,0.00,,2013-06-01 12:12:00,
2013-06-01 08:22:00,74.0,68.0,30.02,ENE,66,0.0,0.0,83,0.00,,,0.00,,2013-06-01 12:22:00,
2013-06-01 08:32:00,77.0,68.0,30.02,SSE,165,0.0,3.0,75,0.00,,,0.00,,2013-06-01 12:32:00,
2013-06-01 08:42:00,77.0,68.0,30.02,SSE,165,0.0,3.0,75,0.00,,,0.00,,2013-06-01 12:42:00,
2013-06-01 08:52:00,78.0,70.0,30.02,SE,133,0.0,1.0,76,0.00,,,0.00,,2013-06-01 12:52:00,
2013-06-01 09:01:00,79.0,70.0,30.02,East,84,0.0,3.0,73,0.00,,,0.00,,2013-06-01 13:01:00,
2013-06-01 09:12:00,79.0,70.0,30.02,East,84,0.0,3.0,73,0.00,,,0.00,,2013-06-01 13:12:00,
2013-06-01 09:22:00,80.0,70.0,30.02,NW,306,0.0,4.0,71,0.00,,,0.00,,2013-06-01 13:22:00,
2013-06-01 09:32:00,81.0,71.0,30.02,SSW,209,0.0,2.0,71,0.00,,,0.00,,2013-06-01 13:32:00,
2013-06-01 09:42:00,81.0,71.0,30.02,SSW,209,0.0,2.0,71,0.00,,,0.00,,2013-06-01 13:42:00,
2013-06-01 09:52:00,82.0,71.0,30.02,NNW,340,0.0,1.0,70,0.00,,,0.00,,2013-06-01 13:52:00,
2013-06-01 10:02:00,82.0,69.0,30.02,WSW,253,1.0,3.0,64,0.00,,,0.00,,2013-06-01 14:02:00,
2013-06-01 10:11:00,82.0,69.0,30.02,WSW,253,1.0,3.0,64,0.00,,,0.00,,2013-06-01 14:11:00,
2013-06-01 10:21:00,83.0,70.0,30.01,East,96,0.0,3.0,65,0.00,,,0.00,,2013-06-01 14:21:00,
2013-06-01 10:32:00,84.0,71.0,30.01,North,351,0.0,5.0,66,0.00,,,0.00,,2013-06-01 14:32:00,
2013-06-01 10:42:00,84.0,71.0,30.01,North,351,0.0,5.0,66,0.00,,,0.00,,2013-06-01 14:42:00,
2013-06-01 10:52:00,85.0,72.0,30.01,WNW,291,1.0,3.0,65,0.00,,,0.00,,2013-06-01 14:52:00,
2013-06-01 11:02:00,85.0,70.0,30.00,WNW,297,1.0,5.0,61,0.00,,,0.00,,2013-06-01 15:02:00,
2013-06-01 11:11:00,85.0,70.0,30.00,WNW,297,1.0,5.0,61,0.00,,,0.00,,2013-06-01 15:11:00,
2013-06-01 11:22:00,86.0,70.0,30.00,NW,306,1.0,5.0,60,0.00,,,0.00,,2013-06-01 15:22:00,
2013-06-01 11:33:00,86.0,69.0,30.00,WNW,291,1.0,5.0,57,0.00,,,0.00,,2013-06-01 15:33:00,
2013-06-01 11:43:00,86.0,69.0,30.00,WNW,291,1.0,5.0,57,0.00,,,0.00,,2013-06-01 15:43:00,
2013-06-01 11:54:00,87.0,69.0,29.99,NNE,20,1.0,6.0,56,0.00,,,0.00,,2013-06-01 15:54:00,
2013-06-01 12:03:00,87.0,70.0,29.99,NE,50,0.0,5.0,58,0.00,,,0.00,,2013-06-01 16:03:00,
2013-06-01 12:12:00,87.0,70.0,29.99,NE,50,0.0,5.0,58,0.00,,,0.00,,2013-06-01 16:12:00,
2013-06-01 12:23:00,88.0,69.0,29.99,WSW,240,1.0,4.0,54,0.00,,,0.00,,2013-06-01 16:23:00,
2013-06-01 12:33:00,89.0,68.0,29.98,East,91,1.0,3.0,50,0.00,,,0.00,,2013-06-01 16:33:00,
2013-06-01 12:42:00,89.0,68.0,29.98,East,91,1.0,3.0,50,0.00,,,0.00,,2013-06-01 16:42:00,
2013-06-01 12:53:00,89.0,70.0,29.98,SE,124,0.0,4.0,53,0.00,,,0.00,,2013-06-01 16:53:00,
2013-06-01 13:02:00,89.0,68.0,29.97,WNW,283,0.0,3.0,51,0.00,,,0.00,,2013-06-01 17:02:00,
2013-06-01 13:12:00,89.0,68.0,29.97,WNW,283,0.0,3.0,51,0.00,,,0.00,,2013-06-01 17:12:00,
2013-06-01 13:22:00,89.0,68.0,29.94,SSE,150,0.0,5.0,51,0.00,,,0.00,,2013-06-01 17:22:00,
2013-06-01 13:32:00,89.0,67.0,29.97,SSW,194,1.0,4.0,49,0.00,,,0.00,,2013-06-01 17:32:00,
2013-06-01 13:42:00,89.0,67.0,29.97,SSW,194,1.0,4.0,49,0.00,,,0.00,,2013-06-01 17:42:00,
2013-06-01 13:52:00,89.0,67.0,29.96,SE,143,1.0,4.0,48,0.00,,,0.00,,2013-06-01 17:52:00,
2013-06-01 14:01:00,90.0,69.0,29.96,East,88,2.0,5.0,50,0.00,,,0.00,,2013-06-01 18:01:00,
2013-06-01 14:12:00,90.0,69.0,29.96,East,88,2.0,5.0,50,0.00,,,0.00,,2013-06-01 18:12:00,
2013-06-01 14:22:00,90.0,68.0,29.96,SSE,147,1.0,4.0,49,0.00,,,0.00,,2013-06-01 18:22:00,
2013-06-01 14:32:00,90.0,69.0,29.95,NW,315,1.0,4.0,51,0.00,,,0.00,,2013-06-01 18:32:00,
2013-06-01 14:42:00,90.0,69.0,29.95,NW,315,1.0,4.0,51,0.00,,,0.00,,2013-06-01 18:42:00,
2013-06-01 14:52:00,90.0,67.0,29.95,WNW,299,1.0,5.0,47,0.00,,,0.00,,2013-06-01 18:52:00,
2013-06-01 15:02:00,90.0,69.0,29.95,SW,225,1.0,4.0,51,0.00,,,0.00,,2013-06-01 19:02:00,
2013-06-01 15:12:00,90.0,69.0,29.95,SW,225,1.0,4.0,51,0.00,,,0.00,,2013-06-01 19:12:00,
2013-06-01 15:21:00,90.0,68.0,29.94,NNE,29,1.0,5.0,48,0.00,,,0.00,,2013-06-01 19:21:00,
2013-06-01 15:32:00,89.0,66.0,29.94,NE,38,1.0,4.0,47,0.00,,,0.00,,2013-06-01 19:32:00,
2013-06-01 15:42:00,89.0,66.0,29.94,NE,38,1.0,4.0,47,0.00,,,0.00,,2013-06-01 19:42:00,
2013-06-01 15:52:00,89.0,69.0,29.93,WNW,286,1.0,4.0,52,0.00,,,0.00,,2013-06-01 19:52:00,
2013-06-01 16:02:00,88.0,70.0,29.93,NNW,331,1.0,4.0,56,0.00,,,0.00,,2013-06-01 20:02:00,
2013-06-01 16:12:00,88.0,70.0,29.93,NNW,331,1.0,4.0,56,0.00,,,0.00,,2013-06-01 20:12:00,
2013-06-01 16:21:00,87.0,70.0,29.93,North,5,0.0,2.0,58,0.00,,,0.00,,2013-06-01 20:21:00,
2013-06-01 16:32:00,86.0,70.0,29.93,North,360,1.0,6.0,59,0.00,,,0.00,,2013-06-01 20:32:00,
2013-06-01 16:42:00,86.0,70.0,29.93,North,360,1.0,6.0,59,0.00,,,0.00,,2013-06-01 20:42:00,
2013-06-01 16:52:00,86.0,71.0,29.93,WNW,298,2.0,6.0,61,0.00,,,0.00,,2013-06-01 20:52:00,
2013-06-01 17:01:00,86.0,70.0,29.93,NNE,15,1.0,5.0,60,0.00,,,0.00,,2013-06-01 21:01:00,
2013-06-01 17:12:00,85.0,70.0,29.93,NW,314,1.0,3.0,61,0.00,,,0.00,,2013-06-01 21:12:00,
2013-06-01 17:22:00,85.0,70.0,29.93,NW,314,1.0,3.0,61,0.00,,,0.00,,2013-06-01 21:22:00,
2013-06-01 17:33:00,86.0,71.0,29.93,NNW,346,1.0,3.0,61,0.00,,,0.00,,2013-06-01 21:33:00,
2013-06-01 17:43:00,86.0,71.0,29.93,NNW,346,1.0,3.0,61,0.00,,,0.00,,2013-06-01 21:43:00,
2013-06-01 17:53:00,85.0,70.0,29.93,SE,134,1.0,4.0,62,0.00,,,0.00,,2013-06-01 21:53:00,
2013-06-01 18:03:00,84.0,70.0,29.93,NNW,344,1.0,3.0,63,0.00,,,0.00,,2013-06-01 22:03:00,
2013-06-01 18:12:00,84.0,70.0,29.93,NNW,344,1.0,3.0,63,0.00,,,0.00,,2013-06-01 22:12:00,
2013-06-01 18:23:00,84.0,70.0,29.92,NW,310,2.0,4.0,64,0.00,,,0.00,,2013-06-01 22:23:00,
2013-06-01 18:33:00,83.0,70.0,29.92,WNW,286,1.0,5.0,64,0.00,,,0.00,,2013-06-01 22:33:00,
2013-06-01 18:42:00,83.0,70.0,29.92,WNW,286,1.0,5.0,64,0.00,,,0.00,,2013-06-01 22:42:00,
2013-06-01 18:53:00,82.0,69.0,29.92,WNW,293,1.0,4.0,65,0.00,,,0.00,,2013-06-01 22:53:00,
2013-06-01 19:02:00,81.0,70.0,29.93,WNW,294,0.0,1.0,69,0.00,,,0.00,,2013-06-01 23:02:00,
2013-06-01 19:12:00,81.0,70.0,29.93,WNW,294,0.0,1.0,69,0.00,,,0.00,,2013-06-01 23:12:00,
2013-06-01 19:22:00,80.0,68.0,29.92,WNW,300,0.0,1.0,68,0.00,,,0.00,,2013-06-01 23:22:00,
2013-06-01 19:32:00,80.0,68.0,29.92,West,276,0.0,2.0,68,0.00,,,0.00,,2013-06-01 23:32:00,
2013-06-01 19:42:00,80.0,68.0,29.92,West,276,0.0,2.0,68,0.00,,,0.00,,2013-06-01 23:42:00,
2013-06-01 19:52:00,80.0,68.0,29.93,NW,318,0.0,2.0,68,0.00,,,0.00,,2013-06-01 23:52:00,
2013-06-01 20:02:00,80.0,69.0,29.93,NW,311,0.0,3.0,69,0.00,,,0.00,,2013-06-02 00:02:00,
2013-06-01 20:11:00,80.0,69.0,29.93,NW,311,0.0,3.0,69,0.00,,,0.00,,2013-06-02 00:11:00,
2013-06-01 20:22:00,79.0,69.0,29.93,NW,315,1.0,3.0,71,0.00,,,0.00,,2013-06-02 00:22:00,
2013-06-01 20:32:00,78.0,68.0,29.93,WNW,288,0.0,2.0,72,0.00,,,0.00,,2013-06-02 00:32:00,
2013-06-01 20:42:00,78.0,68.0,29.93,WNW,288,0.0,2.0,72,0.00,,,0.00,,2013-06-02 00:42:00,
2013-06-01 20:52:00,77.0,68.0,29.93,NW,305,0.0,1.0,74,0.00,,,0.00,,2013-06-02 00:52:00,
2013-06-01 21:01:00,76.0,68.0,29.94,NW,311,0.0,0.0,77,0.00,,,0.00,,2013-06-02 01:01:00,
2013-06-01 21:11:00,76.0,68.0,29.94,NW,311,0.0,0.0,77,0.00,,,0.00,,2013-06-02 01:11:00,
2013-06-01 21:21:00,75.0,68.0,29.94,NW,311,0.0,0.0,78,0.00,,,0.00,,2013-06-02 01:21:00,
2013-06-01 21:32:00,75.0,68.0,29.94,NW,311,0.0,0.0,79,0.00,,,0.00,,2013-06-02 01:32:00,
2013-06-01 21:42:00,75.0,68.0,29.94,NW,311,0.0,0.0,79,0.00,,,0.00,,2013-06-02 01:42:00,
2013-06-01 21:52:00,75.0,68.0,29.94,NW,311,0.0,0.0,79,0.00,,,0.00,,2013-06-02 01:52:00,
2013-06-01 22:02:00,75.0,68.0,29.94,WNW,290,0.0,1.0,80,0.00,,,0.00,,2013-06-02 02:02:00,
2013-06-01 22:12:00,75.0,68.0,29.94,WNW,290,0.0,1.0,80,0.00,,,0.00,,2013-06-02 02:12:00,
2013-06-01 22:21:00,74.0,67.0,29.94,West,271,0.0,1.0,80,0.00,,,0.00,,2013-06-02 02:21:00,
2013-06-01 22:32:00,74.0,67.0,29.94,WSW,255,0.0,2.0,80,0.00,,,0.00,,2013-06-02 02:32:00,
2013-06-01 22:42:00,74.0,67.0,29.94,WSW,255,0.0,2.0,80,0.00,,,0.00,,2013-06-02 02:42:00,
2013-06-01 22:52:00,74.0,67.0,29.94,WNW,285,1.0,2.0,80,0.00,,,0.00,,2013-06-02 02:52:00,
2013-06-01 23:02:00,73.0,67.0,29.93,WSW,240,0.0,2.0,81,0.00,,,0.00,,2013-06-02 03:02:00,
2013-06-01 23:11:00,73.0,67.0,29.93,WSW,240,0.0,2.0,81,0.00,,,0.00,,2013-06-02 03:11:00,
2013-06-01 23:21:00,73.0,67.0,29.94,NNE,14,0.0,1.0,81,0.00,,,0.00,,2013-06-02 03:21:00,
2013-06-01 23:33:00,73.0,67.0,29.94,SSE,163,0.0,1.0,81,0.00,,,0.00,,2013-06-02 03:33:00,
2013-06-01 23:43:00,73.0,67.0,29.94,SSE,163,0.0,1.0,81,0.00,,,0.00,,2013-06-02 03:43:00,
2013-06-01 23:53:00,72.0,67.0,29.94,SW,234,0.0,0.0,83,0.00,,,0.00,,2013-06-02 03:53:00,